Regional Weather Roundup
Issued by NWS Midland/Odessa, TX

Skip options and go directly to product.
Home | Oldest Version | Previous Version | Current Version | All | Text Only | Save Text | Print | Product List | Glossary On

Skip product version selection by date and time.   
086
ASUS44 KMAF 080401
RWRMAF
MIDLAND AREA WEATHER ROUNDUP
NATIONAL WEATHER SERVICE MIDLAND TX
1000 PM CST WED DEC 07 2016

...IN SOUTHWEST TEXAS AND SOUTHEAST NEW MEXICO...

CITY           SKY/WX    TMP DP  RH WIND       PRES   REMARKS
ALPINE         CLOUDY    47  34  60 NE3       30.22R
ANDREWS        CLOUDY    36  32  85 NE17G26   30.27R WCI  26
ARTESIA        CLOUDY    39  34  81 NE15G21   30.28R WCI  31
BIG SPRING     CLOUDY    38  34  83 NE18G26   30.30R WCI  29
CARLSBAD       CLOUDY    40  35  83 NE13      30.25R WCI  32
DRYDEN           N/A     47  45  93 E5        30.16R
FORT STOCKTON  CLOUDY    44  43  96 NE14      30.19R WCI  37
GUAD PASS      CLOUDY    40  35  83 E36       30.15S WCI  27
HOBBS          CLOUDY    34  28  80 NE21G31   30.27R WCI  22
MARFA          CLOUDY    41  30  65 N8        30.17R WCI  36
MIDLAND AIRPK  CLOUDY    40  33  77 NE21G29   30.26R WCI  30
MIDLAND INTL   CLOUDY    40  33  76 NE18G30   30.25R WCI  31
ODESSA         CLOUDY    39  32  76 NE24G32   30.24R WCI  28
PECOS          CLOUDY    44  39  84 NE10      30.23R WCI  38
PRESIDIO       FAIR      60  33  36 S3        30.07R
SEMINOLE       CLOUDY    35  30  83 NE16G22   30.30R WCI  25
SNYDER         CLOUDY    37  30  78 NE14      30.32R WCI  28
WINK           CLOUDY    41  35  79 NE13G24   30.23R WCI  34
$$
...OTHER STATIONS IN TEXAS...

CITY           SKY/WX    TMP DP  RH WIND       PRES   REMARKS
ABILENE        CLOUDY    41  32  70 N12       30.32R WCI  34
AMARILLO       CLOUDY    23  17  78 N17       30.41R WCI   9
AUSTIN         CLOUDY    54  48  80 N18       30.19R
BROWNSVILLE    MOCLDY    72  70  93 E3        30.02R
CORPUS CHRISTI CLOUDY    61  58  90 NE15      30.07R
DALLAS FTW     CLOUDY    43  37  79 NE20      30.29R WCI  34
DEL RIO        CLOUDY    51  48  89 CALM      30.16R
EL PASO        CLOUDY    52  35  52 SE7       30.10R
HOUSTON INT    RAIN      56  53  90 N6        30.16R FOG
LUBBOCK        CLOUDY    33  22  63 NE18      30.33R WCI  22
SAN ANGELO     CLOUDY    44  39  82 NE17      30.26R WCI  36
SAN ANTONIO    CLOUDY    54  48  80 NE6       30.16R
WACO           CLOUDY    51  43  74 N12       30.25R
WICHITA FALLS  NOT AVBL
$$
...OTHER LOCATIONS IN NEW MEXICO...

CITY           SKY/WX    TMP DP  RH WIND       PRES   REMARKS
ALAMAGORDO     NOT AVBL
ALBUQUERQUE    CLOUDY    36  17  46 N6        30.20R WCI  31
CANNON AFB     CLOUDY    24  20  82 NE22      30.34R WCI   9
CLOVIS         CLOUDY    25  14  63 NE17G25   30.35R WCI  11
HOLLOMAN AFB   CLOUDY    49  31  48 SE9       30.14R
ROSWELL        CLOUDY    36  13  38 NE17      30.31R WCI  26
RUIDOSO        CLOUDY    27  16  63 SE10      30.25R WCI  17
SANTA FE       CLOUDY    28  11  48 CALM      30.19R
TRUTH OR CONSE CLOUDY    46  22  38 N10       30.11R
TUCUMCARI      CLOUDY    24  14  65 NE14      30.39R WCI  12
$$

  • National Weather Service
  • Southern Region Headquarters
  • 819 Taylor Street, Room 10A06
  • Fort Worth, TX 76102
  • Page Author: NWS Fort Worth
  • Web Master: SR-SRH.Webmaster@noaa.gov
  •  
  • Page last modified: 30-Sep-2016 6:36 PM UTC
USA.gov is the U.S. government's official web portal to all federal, state and local government web resources and services.